Date String (YYYY-MM-DD hh:mm:ss) UTC,Instrument flags,Ambient pressure (hPa),Sample flow (lpm),Bypass flow (lpm),Sample temperature (°C),Ambient temperature (°C),ASC tube jacket temperature (°C),LED temperature (°C),Box temperature (°C),Sample RH (%),Span deviation,Mass concentration (μg/m³),Mass concentration (μg/m³),Mass concentration (μg/m³)
DateTimeUTC,F1_M11,P_M11,Q1_M11,Q2_M11,T1_M11,T2_M11,T3_M11,T4_M11,T5_M11,U1_M11,ZSPAN_M11,X0_M11,X2_M11,X1_M11
2022-10-22 07:00:00,,0813.9,5.01,0.00,29.0,27.2,00.0,38.2,30.8,07.0,0000.0,0012.07,0004.58,0003.84
2022-10-22 07:01:00,,0813.8,5.00,0.00,29.0,27.2,00.0,38.2,30.8,07.0,0000.0,0012.53,0004.59,0003.86
2022-10-22 07:02:00,,0813.8,4.99,0.00,29.0,27.2,00.0,38.1,30.8,07.0,0000.0,0012.17,0004.60,0003.86
2022-10-22 07:03:00,,0813.9,5.02,0.00,29.0,27.2,00.0,38.1,30.8,07.0,0000.0,0012.52,0004.57,0003.86
2022-10-22 07:04:00,,0813.9,5.01,0.00,29.0,27.2,00.0,38.1,30.8,07.0,0000.0,0012.99,0004.60,0003.87
2022-10-22 07:05:00,,0813.8,4.99,0.00,29.0,27.1,00.0,38.1,30.7,07.0,0000.0,0013.30,0004.63,0003.88
2022-10-22 07:06:00,,0814.1,4.99,0.00,29.0,27.1,00.0,38.1,30.7,07.0,0000.0,0013.05,0004.61,0003.89
2022-10-22 07:07:00,,0814.1,4.99,0.00,29.0,27.1,00.0,38.1,30.7,07.1,0000.0,0013.63,0004.60,0003.90
2022-10-22 07:08:00,,0814.1,5.00,0.00,29.0,27.1,00.0,38.1,30.7,07.1,0000.0,0013.00,0004.58,0003.90
2022-10-22 07:09:00,,0814.0,5.00,0.00,29.0,27.1,00.0,38.1,30.7,07.1,0000.0,0013.88,0004.56,0003.91
2022-10-22 07:10:00,,0813.8,5.01,0.00,29.0,27.1,00.0,38.1,30.7,07.1,0000.0,0013.24,0004.53,0003.92
2022-10-22 07:11:00,,0813.8,4.98,0.00,28.9,27.1,00.0,38.1,30.7,07.0,0000.0,0012.79,0004.55,0003.92
2022-10-22 07:12:00,,0814.0,5.00,0.00,28.9,27.1,00.0,38.0,30.7,07.0,0000.0,0012.54,0004.53,0003.92
2022-10-22 07:13:00,,0813.9,5.01,0.00,28.9,27.1,00.0,38.0,30.7,07.0,0000.0,0012.91,0004.51,0003.92
2022-10-22 07:14:00,,0814.0,4.99,0.00,28.9,27.1,00.0,38.0,30.7,07.0,0000.0,0012.44,0004.53,0003.91
2022-10-22 07:15:00,,0814.1,4.99,0.00,28.9,27.1,00.0,38.0,30.7,07.1,0000.0,0012.03,0004.48,0003.88
2022-10-22 07:16:00,,0814.1,5.00,0.00,28.9,27.1,00.0,38.0,30.7,07.1,0000.0,0011.94,0004.48,0003.88
2022-10-22 07:17:00,,0814.1,5.01,0.00,28.9,27.1,00.0,38.0,30.7,07.1,0000.0,0011.57,0004.46,0003.86
2022-10-22 07:18:00,,0814.2,5.01,0.00,28.9,27.1,00.0,38.0,30.6,07.1,0000.0,0010.87,0004.46,0003.86
2022-10-22 07:19:00,,0814.4,5.00,0.00,28.9,27.1,00.0,38.0,30.6,07.1,0000.0,0010.59,0004.46,0003.85
2022-10-22 07:20:00,,0814.3,4.99,0.00,28.9,27.1,00.0,38.0,30.6,07.1,0000.0,0009.60,0004.43,0003.83
2022-10-22 07:21:00,,0814.2,4.99,0.00,28.9,27.1,00.0,38.0,30.6,07.1,0000.0,0009.49,0004.41,0003.81
2022-10-22 07:22:00,,0814.3,5.00,0.00,28.8,27.1,00.0,38.0,30.6,07.2,0000.0,0009.65,0004.38,0003.81
2022-10-22 07:23:00,,0814.3,5.01,0.00,28.9,27.1,00.0,37.9,30.6,07.2,0000.0,0009.48,0004.38,0003.81
2022-10-22 07:24:00,,0814.3,4.99,0.00,28.9,27.2,00.0,37.9,30.7,07.2,0000.0,0009.14,0004.40,0003.82
2022-10-22 07:25:00,,0814.2,5.00,0.00,28.9,27.2,00.0,37.9,30.7,07.2,0000.0,0008.83,0004.40,0003.83
2022-10-22 07:26:00,,0814.2,5.01,0.00,28.9,27.2,00.0,37.9,30.7,07.2,0000.0,0009.39,0004.41,0003.86
2022-10-22 07:27:00,,0814.0,5.00,0.00,28.9,27.2,00.0,37.9,30.7,07.2,0000.0,0009.42,0004.41,0003.88
2022-10-22 07:28:00,,0814.0,5.01,0.00,28.9,27.2,00.0,37.9,30.7,07.2,0000.0,0010.14,0004.45,0003.91
2022-10-22 07:29:00,,0813.9,5.00,0.00,28.9,27.3,00.0,37.9,30.7,07.3,0000.0,0010.10,0004.50,0003.93
2022-10-22 07:30:00,,0814.0,5.00,0.00,28.9,27.3,00.0,37.9,30.8,07.3,0000.0,0010.73,0004.53,0003.95
2022-10-22 07:31:00,,0813.8,4.99,0.00,28.9,27.2,00.0,37.9,30.7,07.3,0000.0,0011.01,0004.60,0003.99
2022-10-22 07:32:00,,0813.9,5.00,0.00,28.9,27.2,00.0,37.9,30.7,07.3,0000.0,0011.06,0004.63,0004.01
2022-10-22 07:33:00,,0813.9,5.00,0.00,28.9,27.2,00.0,37.9,30.7,07.3,0000.0,0011.28,0004.63,0004.03
2022-10-22 07:34:00,,0813.8,5.00,0.00,28.9,27.1,00.0,37.9,30.6,07.3,0000.0,0011.28,0004.65,0004.04
2022-10-22 07:35:00,,0813.8,5.00,0.00,28.9,27.1,00.0,37.9,30.6,07.4,0000.0,0011.46,0004.66,0004.05
2022-10-22 07:36:00,,0814.0,4.99,0.00,28.8,27.0,00.0,37.9,30.6,07.4,0000.0,0011.83,0004.70,0004.06
2022-10-22 07:37:00,,0813.9,5.00,0.00,28.8,27.0,00.0,37.9,30.6,07.4,0000.0,0011.58,0004.72,0004.08
2022-10-22 07:38:00,,0814.0,5.01,0.00,28.8,27.0,00.0,37.9,30.6,07.4,0000.0,0011.71,0004.73,0004.09
2022-10-22 07:39:00,,0814.0,5.00,0.00,28.8,27.0,00.0,37.9,30.5,07.4,0000.0,0011.25,0004.76,0004.09
2022-10-22 07:40:00,,0814.2,5.01,0.00,28.8,27.0,00.0,37.9,30.5,07.5,0000.0,0011.13,0004.75,0004.09
2022-10-22 07:41:00,,0814.0,5.00,0.00,28.8,27.0,00.0,37.9,30.5,07.5,0000.0,0010.53,0004.75,0004.09
2022-10-22 07:42:00,,0814.0,5.00,0.00,28.8,27.0,00.0,37.9,30.5,07.5,0000.0,0010.22,0004.72,0004.08
2022-10-22 07:43:00,,0814.0,4.99,0.00,28.8,27.0,00.0,37.9,30.5,07.5,0000.0,0010.94,0004.73,0004.09
2022-10-22 07:44:00,,0813.9,5.00,0.00,28.7,27.0,00.0,37.8,30.5,07.6,0000.0,0010.99,0004.77,0004.11
2022-10-22 07:45:00,,0813.7,5.00,0.00,28.7,27.0,00.0,37.8,30.5,07.5,0000.0,0011.50,0004.75,0004.13
2022-10-22 07:46:00,,0814.1,5.00,0.00,28.7,27.0,00.0,37.8,30.5,07.5,0000.0,0011.38,0004.74,0004.13
2022-10-22 07:47:00,,0813.7,5.02,0.00,28.7,27.0,00.0,37.8,30.5,07.6,0000.0,0011.46,0004.73,0004.14
2022-10-22 07:48:00,,0813.6,5.00,0.00,28.7,27.0,00.0,37.8,30.5,07.6,0000.0,0011.56,0004.78,0004.13
2022-10-22 07:49:00,,0813.9,5.00,0.00,28.7,26.9,00.0,37.8,30.5,07.6,0000.0,0011.14,0004.75,0004.11
2022-10-22 07:50:00,,0813.7,4.98,0.00,28.7,26.9,00.0,37.8,30.5,07.6,0000.0,0011.17,0004.75,0004.11
2022-10-22 07:51:00,,0813.6,5.02,0.00,28.7,26.9,00.0,37.8,30.5,07.6,0000.0,0011.13,0004.75,0004.12
2022-10-22 07:52:00,,0813.8,5.00,0.00,28.7,26.9,00.0,37.8,30.5,07.6,0000.0,0011.78,0004.76,0004.11
2022-10-22 07:53:00,,0813.8,5.00,0.00,28.7,26.9,00.0,37.8,30.5,07.7,0000.0,0012.09,0004.78,0004.11
2022-10-22 07:54:00,,0813.8,4.99,0.00,28.7,26.9,00.0,37.8,30.4,07.7,0000.0,0011.95,0004.79,0004.11
2022-10-22 07:55:00,,0813.9,4.99,0.00,28.7,26.9,00.0,37.8,30.4,07.7,0000.0,0011.75,0004.80,0004.09
2022-10-22 07:56:00,,0813.9,5.00,0.00,28.7,26.8,00.0,37.8,30.4,07.7,0000.0,0011.08,0004.82,0004.07
2022-10-22 07:57:00,,0813.9,4.99,0.00,28.7,26.8,00.0,37.8,30.4,07.7,0000.0,0010.91,0004.82,0004.07
2022-10-22 07:58:00,,0813.7,5.01,0.00,28.6,26.8,00.0,37.7,30.4,07.7,0000.0,0010.49,0004.80,0004.06
2022-10-22 07:59:00,,0813.8,5.00,0.00,28.6,26.8,00.0,37.7,30.4,07.6,0000.0,0010.10,0004.72,0004.05
